Погода в Комацу

Япония     36°18′30″N   136°24′14″E
темп.,
°C
ветер,
м/с
пор.,
м/с
влажн.,
%
обл.,
%
осадки,
мм/ч
давл.,
гПа
погр.,
м
9 мая, вс
вс900:00+13ююв4775100 0.0 1005150
03:00+13ююв4782100 0.0 1004133
06:00+13ю399129 1.0 1005293
09:00+13зюз4119593 3.9 1007966
12:00+17з58510 0.3 10081531
15:00+15з46470 0.3 10081456
18:00+12з24710 0.0 1010244
21:00+8юв22830 0.0 101233
10 мая, пн
пн1000:00+7юв32590 0.0 101141
03:00+8юв32510 0.0 101242
06:00+9юв23620 0.0 101351
09:00+16зюз35463 0.0 10131215
12:00+17з4544100 0.0 10131624
15:00+12зсз3479100 0.7 10161347
18:00+9зюз0197100 4.8 101683
21:00+9ю1296100 6.2 101797
11 мая, вт
вт1100:00+8з0098100 0.9 101744
03:00+7в119699 0.9 101711
06:00+8всв12945 0.0 101877
09:00+14с245377 0.0 1018868
12:00+17с4637100 0.0 10171462
15:00+17с4543100 0.0 10171202
18:00+12ссв2369100 0.0 101879
21:00+8вюв2258100 0.0 102021
12 мая, ср
ср1200:00+8юв2245100 0.0 101921
03:00+8вюв2241100 0.0 101916
06:00+9юв2247100 0.0 102027
09:00+18юз1231100 0.0 1018674
12:00+20юз2433100 0.0 10171199
15:00+20зюз1345100 0.0 1016707
18:00+15ююв1175100 0.0 101734
21:00+12юв3383100 0.0 101862
13 мая, чт
чт1300:00+11юв3382100 0.0 101850
03:00+11юв3379100 0.0 101754
06:00+13юв227833 0.0 101656
09:00+17зюз016997 0.0 1016279
12:00+18з1169100 0.0 1015404
15:00+19ююз016885 0.0 1013397
18:00+17ссз228037 0.0 101356
21:00+13вюв2191100 0.0 101514